Date String (YYYY-MM-DD hh:mm:ss) UTC,Instrument flags,Ambient pressure (hPa),Sample flow (lpm),Bypass flow (lpm),Sample temperature (°C),Ambient temperature (°C),ASC tube jacket temperature (°C),LED temperature (°C),Box temperature (°C),Sample RH (%),Span deviation,Mass concentration (μg/m³),Mass concentration (μg/m³),Mass concentration (μg/m³)
DateTimeUTC,F1_M11,P_M11,Q1_M11,Q2_M11,T1_M11,T2_M11,T3_M11,T4_M11,T5_M11,U1_M11,ZSPAN_M11,X0_M11,X2_M11,X1_M11
2021-11-18 12:00:00,,0834.0,4.99,0.00,22.1,22.0,00.0,31.2,23.9,08.2,0000.0,0013.68,0003.95,0002.92
2021-11-18 12:01:00,,0834.0,5.01,0.00,22.2,22.9,00.0,31.3,24.1,07.9,0000.0,0013.35,0003.96,0002.95
2021-11-18 12:02:00,,0834.0,5.00,0.00,22.4,23.2,00.0,31.3,24.3,07.3,0000.0,0012.88,0003.92,0002.89
2021-11-18 12:03:00,,0834.0,4.99,0.00,22.4,23.0,00.0,31.3,24.3,07.2,0000.0,0012.22,0003.82,0002.80
2021-11-18 12:04:00,,0834.0,5.00,0.00,22.4,22.7,00.0,31.3,24.3,07.4,0000.0,0011.97,0003.74,0002.69
2021-11-18 12:05:00,,0834.0,5.00,0.00,22.4,22.4,00.0,31.3,24.2,07.6,0000.0,0011.87,0003.69,0002.60
2021-11-18 12:06:00,,0834.0,5.00,0.00,22.4,22.2,00.0,31.3,24.1,07.7,0000.0,0011.20,0003.59,0002.51
2021-11-18 12:07:00,,0834.0,5.00,0.00,22.3,22.1,00.0,31.3,24.1,07.9,0000.0,0010.70,0003.60,0002.48
2021-11-18 12:08:00,,0834.0,4.99,0.00,22.3,21.9,00.0,31.3,24.0,08.0,0000.0,0010.10,0003.64,0002.52
2021-11-18 12:09:00,,0834.0,5.00,0.00,22.3,21.8,00.0,31.3,24.0,08.0,0000.0,0009.56,0003.64,0002.53
2021-11-18 12:10:00,,0833.9,5.00,0.00,22.3,21.7,00.0,31.3,23.9,08.1,0000.0,0009.50,0003.64,0002.54
2021-11-18 12:11:00,,0833.9,4.99,0.00,22.2,21.6,00.0,31.3,23.9,08.2,0000.0,0009.22,0003.65,0002.54
2021-11-18 12:12:00,,0833.9,5.00,0.00,22.2,21.6,00.0,31.3,23.9,08.1,0000.0,0009.11,0003.67,0002.55
2021-11-18 12:13:00,,0833.9,5.00,0.00,22.2,21.5,00.0,31.3,23.9,08.1,0000.0,0009.26,0003.74,0002.61
2021-11-18 12:14:00,,0833.9,5.01,0.00,22.2,21.5,00.0,31.3,23.8,08.0,0000.0,0009.33,0003.81,0002.68
2021-11-18 12:15:00,,0834.0,4.99,0.00,22.1,21.5,00.0,31.3,23.8,08.1,0000.0,0009.37,0003.84,0002.74
2021-11-18 12:16:00,,0834.0,5.00,0.00,22.2,22.1,00.0,31.3,24.0,08.2,0000.0,0009.08,0003.87,0002.79
2021-11-18 12:17:00,,0834.0,4.99,0.00,22.3,22.8,00.0,31.3,24.2,07.9,0000.0,0009.40,0003.87,0002.82
2021-11-18 12:18:00,,0834.0,5.00,0.00,22.4,23.2,00.0,31.3,24.3,07.3,0000.0,0009.40,0003.75,0002.77
2021-11-18 12:19:00,,0834.1,5.00,0.00,22.5,22.9,00.0,31.4,24.3,07.4,0000.0,0009.22,0003.66,0002.69
2021-11-18 12:20:00,,0834.0,5.00,0.00,22.4,22.6,00.0,31.4,24.3,07.4,0000.0,0009.44,0003.62,0002.61
2021-11-18 12:21:00,,0834.0,5.01,0.00,22.4,22.4,00.0,31.4,24.2,07.4,0000.0,0009.74,0003.62,0002.54
2021-11-18 12:22:00,,0834.0,4.99,0.00,22.4,22.2,00.0,31.4,24.1,07.4,0000.0,0009.65,0003.53,0002.48
2021-11-18 12:23:00,,0834.1,5.00,0.00,22.4,22.0,00.0,31.4,24.1,07.4,0000.0,0009.49,0003.48,0002.42
2021-11-18 12:24:00,,0834.1,5.01,0.00,22.3,21.9,00.0,31.4,24.0,07.5,0000.0,0009.32,0003.41,0002.35
2021-11-18 12:25:00,,0834.1,4.99,0.00,22.3,21.7,00.0,31.3,24.0,07.5,0000.0,0009.76,0003.36,0002.29
2021-11-18 12:26:00,,0834.1,5.01,0.00,22.2,21.6,00.0,31.3,23.9,07.6,0000.0,0009.64,0003.33,0002.24
2021-11-18 12:27:00,,0834.1,4.99,0.00,22.2,21.5,00.0,31.3,23.9,07.7,0000.0,0009.52,0003.30,0002.18
2021-11-18 12:28:00,,0834.1,4.99,0.00,22.2,21.5,00.0,31.3,23.9,07.7,0000.0,0009.35,0003.27,0002.11
2021-11-18 12:29:00,,0834.1,5.01,0.00,22.1,21.4,00.0,31.3,23.8,07.8,0000.0,0009.63,0003.30,0002.12
2021-11-18 12:30:00,,0834.1,5.00,0.00,22.1,21.5,00.0,31.3,23.8,07.9,0000.0,0010.70,0003.30,0002.12
2021-11-18 12:31:00,,0834.1,5.00,0.00,22.2,22.1,00.0,31.3,23.9,07.9,0000.0,0010.77,0003.32,0002.12
2021-11-18 12:32:00,,0834.2,5.00,0.00,22.3,22.8,00.0,31.3,24.1,07.8,0000.0,0011.06,0003.30,0002.11
2021-11-18 12:33:00,,0834.3,5.00,0.00,22.4,23.4,00.0,31.4,24.4,07.8,0000.0,0011.59,0003.30,0002.10
2021-11-18 12:34:00,,0834.3,5.00,0.00,22.5,23.3,00.0,31.4,24.5,07.6,0000.0,0011.78,0003.32,0002.12
2021-11-18 12:35:00,,0834.3,5.01,0.00,22.5,23.0,00.0,31.4,24.4,07.6,0000.0,0011.88,0003.34,0002.13
2021-11-18 12:36:00,,0834.2,5.01,0.00,22.5,22.7,00.0,31.4,24.3,07.7,0000.0,0011.52,0003.39,0002.16
2021-11-18 12:37:00,,0834.2,5.00,0.00,22.5,22.4,00.0,31.4,24.2,08.0,0000.0,0011.14,0003.40,0002.23
2021-11-18 12:38:00,,0834.1,5.00,0.00,22.5,22.3,00.0,31.4,24.2,07.9,0000.0,0011.47,0003.44,0002.27
2021-11-18 12:39:00,,0834.1,5.00,0.00,22.4,22.1,00.0,31.4,24.1,07.6,0000.0,0011.54,0003.44,0002.28
2021-11-18 12:40:00,,0834.1,5.01,0.00,22.4,22.0,00.0,31.4,24.1,07.6,0000.0,0011.05,0003.43,0002.27
2021-11-18 12:41:00,,0834.1,4.99,0.00,22.4,21.8,00.0,31.4,24.1,07.8,0000.0,0010.32,0003.56,0002.30
2021-11-18 12:42:00,,0834.0,5.01,0.00,22.3,21.8,00.0,31.4,24.0,08.0,0000.0,0010.02,0003.59,0002.37
2021-11-18 12:43:00,,0834.0,5.00,0.00,22.3,21.7,00.0,31.4,24.0,08.0,0000.0,0009.27,0003.59,0002.43
2021-11-18 12:44:00,,0834.0,4.99,0.00,22.3,21.6,00.0,31.4,23.9,07.9,0000.0,0008.50,0003.57,0002.45
2021-11-18 12:45:00,,0834.0,4.99,0.00,22.3,21.6,00.0,31.4,23.9,08.0,0000.0,0008.34,0003.55,0002.44
2021-11-18 12:46:00,,0834.0,5.01,0.00,22.2,21.5,00.0,31.3,23.9,08.1,0000.0,0008.58,0003.60,0002.45
2021-11-18 12:47:00,,0834.0,4.99,0.00,22.2,21.5,00.0,31.3,23.9,08.1,0000.0,0008.63,0003.58,0002.46
2021-11-18 12:48:00,,0834.0,5.01,0.00,22.2,21.5,00.0,31.3,23.9,08.2,0000.0,0008.70,0003.60,0002.45
2021-11-18 12:49:00,,0834.0,5.00,0.00,22.2,22.1,00.0,31.3,24.0,08.2,0000.0,0008.39,0003.58,0002.44
2021-11-18 12:50:00,,0834.1,4.99,0.00,22.4,22.9,00.0,31.4,24.2,08.2,0000.0,0009.03,0003.64,0002.47
2021-11-18 12:51:00,,0834.1,5.00,0.00,22.5,23.2,00.0,31.4,24.4,08.0,0000.0,0009.23,0003.70,0002.51
2021-11-18 12:52:00,,0834.0,5.00,0.00,22.6,23.0,00.0,31.4,24.5,08.0,0000.0,0009.07,0003.64,0002.52
2021-11-18 12:53:00,,0834.0,5.00,0.00,22.5,22.8,00.0,31.4,24.4,07.9,0000.0,0009.42,0003.59,0002.50
2021-11-18 12:54:00,,0834.0,5.01,0.00,22.5,22.5,00.0,31.4,24.3,07.9,0000.0,0009.54,0003.59,0002.48
2021-11-18 12:55:00,,0834.0,4.99,0.00,22.4,22.3,00.0,31.4,24.2,07.9,0000.0,0009.57,0003.61,0002.50
2021-11-18 12:56:00,,0833.9,5.01,0.00,22.4,22.0,00.0,31.4,24.1,07.9,0000.0,0010.00,0003.65,0002.54
2021-11-18 12:57:00,,0833.9,4.99,0.00,22.4,21.9,00.0,31.4,24.0,07.9,0000.0,0010.10,0003.66,0002.59
2021-11-18 12:58:00,,0833.9,5.00,0.00,22.3,21.8,00.0,31.4,24.0,08.0,0000.0,0010.05,0003.65,0002.61
2021-11-18 12:59:00,,0833.9,4.99,0.00,22.3,21.7,00.0,31.4,23.9,08.3,0000.0,0010.00,0003.65,0002.62
